sat.trackr.live / text

‹ back to catalog

STARLINK-36165

NORAD 66937 · 2025-286N

PAYLOAD ACTIVE UNKNOWN

§ Identity

Operator
Country
US
Launch date
2025-12-07
Launch site
AFWTR
Launch vehicle
Mass (kg)
RCS (m²)

Purposes: comms

External: N2YO · Heavens-Above · Gunter

§ Orbital elements

Epoch: 2026-05-24T23:52:48.825984Z

Period
93.85 min
Inclination
53.1609°
Eccentricity
0.0001113
Mean motion
15.34398402 rev/d
Perigee alt
461.9 km
Apogee alt
463.5 km
Semi-major
6,840.8 km
B*
4.8338e-4
RAAN
3.7241°
Arg perigee
83.7765°
Mean anomaly
276.3365°
Rev number
2,710

§ Raw data

STARLINK-361651 66937U 25286N   26144.99500956  .00015989  00000+0  48338-3 0  99942 66937  53.1609   3.7241 0001113  83.7765 276.3365 15.34398402 27107

JSON: /api/v1/satellites/66937 · /tle

For live sub-satellite position, see the globe view (requires WebGL).

§ Visibility from observer

Set your observer location to see the next 7 days of passes ≥ 10°. The values pass through the URL so the page stays shareable.

No JS? Fill the form by hand. The geolocation button needs JavaScript.